Simultaneous Nadir Overpasses (SNOs) Predictions

Prediction of SNOs between NOAA-19 and TERRA Satellite Orbit:

Table of predicted SNOs for the next 14.0 days since TLE Epoch: 1/12/2018
Index Date (NOAA-19) Time (NOAA-19) Lat,Lon (NOAA-19) SZA (NOAA-19 ) Date (TERRA) Time (TERRA) Lat,Lon (TERRA) SZA (TERRA ) Distance(km) Time Diff (sec)
1 01/13/2018 06:48:25 76.46, 92.04 98.13 01/13/2018 06:49:14 76.47, 91.93 98.14 3.19 49
2 01/13/2018 07:39:28 -76.45,-100.67 81.89 01/13/2018 07:38:42 -76.43,-100.56 81.91 3.35 46
3 01/15/2018 12:22:10 -76.51,-171.53 82.24 01/15/2018 12:22:58 -76.51,-171.37 82.22 4.23 48
4 01/15/2018 13:13:06 76.44, -4.00 97.71 01/15/2018 13:12:25 76.45, -3.92 97.71 2.15 41
5 01/17/2018 17:55:47 76.49, -74.79 97.32 01/17/2018 17:56:42 76.48, -74.90 97.31 3.30 55
6 01/17/2018 18:46:50 -76.44, 92.66 82.74 01/17/2018 18:46:10 -76.45, 92.63 82.74 1.08 40
7 01/19/2018 23:29:32 -76.52, 21.75 83.13 01/19/2018 23:30:26 -76.53, 21.83 83.11 2.38 54
8 01/20/2018 00:20:27 76.44,-170.69 96.80 01/20/2018 00:19:53 76.46,-170.74 96.81 2.77 34
9 01/22/2018 05:03:09 76.54, 118.33 96.39 01/22/2018 05:04:09 76.54, 118.45 96.41 3.27 60
10 01/22/2018 05:54:12 -76.45, -74.10 83.69 01/22/2018 05:53:38 -76.47, -74.16 83.69 2.30 34
11 01/24/2018 10:36:54 -76.54,-145.05 84.14 01/24/2018 10:37:54 -76.55,-144.95 84.11 2.75 60
12 01/24/2018 11:27:49 76.49, 22.41 95.82 01/24/2018 11:27:21 76.48, 22.46 95.81 1.80 28
13 01/26/2018 16:10:30 76.55, -48.43 95.32 01/26/2018 16:11:37 76.57, -48.34 95.35 2.76 67




NCC Satellite Simultaneous Nadir Overpasses (SNOs) Prediction Service
